Date,TemperatureHighF,TemperatureAvgF,TemperatureLowF,DewpointHighF,DewpointAvgF,DewpointLowF,HumidityHigh,HumidityAvg,HumidityLow,PressureMaxIn,PressureMinIn,WindSpeedMaxMPH,WindSpeedAvgMPH,GustSpeedMaxMPH,PrecipitationSumIn
2013-2-1,18,11,8,13,4,2,83,75,67,30.30,29.91,4,1,12,0.00
2013-2-2,24,16,6,19,11,2,89,80,75,30.24,29.95,6,1,6,0.00
2013-2-3,22,12,4,16,6,0,93,77,63,30.03,29.87,16,0,16,0.00
2013-2-4,17,17,17,8,8,8,67,67,67,30.03,29.80,0,0,0,0.00
2013-2-5,27,21,17,22,14,8,86,74,67,29.98,29.81,6,1,6,0.00
2013-2-6,31,26,22,22,19,14,86,74,57,30.31,29.98,6,0,6,0.07
2013-2-7,39,29,25,29,21,16,85,72,66,30.27,29.83,4,0,5,0.00
2013-2-8,30,29,29,26,26,26,88,88,85,30.30,29.77,3,0,3,0.00
2013-2-9,31,28,15,26,22,12,88,80,59,30.47,30.27,6,1,6,0.04
2013-2-10,40,32,22,37,26,18,92,80,64,30.27,29.66,8,1,8,0.08
2013-2-11,44,37,31,42,30,25,94,78,68,29.89,29.54,19,4,19,0.04
2013-2-12,32,30,27,26,23,20,79,74,70,30.05,29.89,12,1,12,0.00
2013-2-13,40,31,26,27,24,21,84,74,57,29.93,29.72,7,0,7,0.00
2013-2-14,39,35,29,34,30,25,92,81,74,29.85,29.67,17,2,17,0.00
2013-2-15,34,27,20,28,17,12,80,66,54,30.14,29.85,12,1,14,0.00
2013-2-16,26,20,15,19,14,9,84,76,56,30.11,29.99,11,0,11,0.00
2013-2-17,24,17,9,15,8,4,92,69,49,30.23,30.08,10,0,14,0.00
2013-2-18,46,33,15,38,22,10,81,66,54,30.22,29.56,13,3,14,0.02
2013-2-19,43,28,17,40,22,10,92,80,69,29.96,29.40,17,3,17,0.10
2013-2-20,22,20,15,16,11,7,81,70,62,30.26,29.96,15,1,15,0.00
2013-2-21,26,22,21,18,15,14,81,74,65,30.40,30.23,6,0,11,0.00
2013-2-22,33,27,22,31,24,17,92,86,80,30.26,29.89,10,1,10,0.00
2013-2-23,34,30,22,30,22,17,89,73,62,29.93,29.86,7,1,12,0.06
2013-2-24,36,28,21,26,22,17,92,77,64,30.16,29.91,11,0,11,0.00
2013-2-25,40,29,15,28,21,12,88,74,56,30.25,30.09,6,0,6,0.00
2013-2-26,35,32,27,31,26,20,91,81,68,30.10,29.47,8,0,9,0.02
2013-2-27,33,33,33,31,31,31,91,91,91,29.47,29.44,0,0,0,0.00
2013-2-28,36,33,30,33,30,25,92,87,79,29.96,29.55,2,0,13,0.00